NIEUW!!! Volg onze weer- en natuurfoto's op Instagram @ weerstationmaaseik.be

WS Maaseik 1 Meer informatie WS Maaseik 1


WS Maaseik 2 Meer informatie WS Maaseik 2


Regen radar Meer informatie rain snow radar


Bezoek onze andere website:

Vorige versie
weerstation Maaseik


Bezoek ook eens deze sites:

Weerstation Geleen

Weerstation Luyksgestel



Het weer levert geen direct gevaar op.    Er zijn geen waarschuwingen afgegeven.

15 daagse weersverwachting Brest (FR)

  • Overzicht
  • Per uur
  • 15 dagen
  • Extra
  • Vergelijk
  • Kaarten
  • Dagkaart
  • Meer »
  • Info
  • Statistieken
  • Directe link
    Temp 6h Neerslag Wind  
 08:07     20:14    Daglengte: 12:07 Morgen
02:00
15°
1.7 mm
4
08:00
15°
 
5
14:00
16°
4.1 mm
9
20:00
17°
10.9 mm
7
 08:09     20:12    Daglengte: 12:03 Dinsdag 24 Sep
02:00
17°
10.8 mm
7
08:00
16°
16.2 mm
7
14:00
17°
2.3 mm
8
20:00
15°
12.7 mm
8
 08:10     20:10    Daglengte: 12:00 Woensdag 25 Sep
02:00
15°
17.6 mm
8
08:00
15°
25.3 mm
7
14:00
16°
21.4 mm
6
20:00
16°
36.2 mm
6
Locatie info
Region: Bretagne
Latitude: 48.3904°N
Longitude: -4.4866°E
59 masl
Postcode: 29200
Temp/Neerslag /Baro Onweer/Dauwpunt
    Temp Baro 1h Neerslag Dauwpunt Wind UV Bewolking  
 08:07     20:14    Daglengte: 12:07 Morgen
00:00
15°
1011.5 hPa 1.7 mm
48%
12.8°
4
Windvlaag: 2.1 m/s
6%
01:00
15°
1011.9 hPa
18%
12.8°
4
Windvlaag: 2.1 m/s
15%
02:00
15°
1011.9 hPa
19%
12.8°
4
Windvlaag: 2.4 m/s
40%
03:00
15°
1011.9 hPa
21%
13.0°
4
Windvlaag: 3.4 m/s
49%
04:00
15°
1011.7 hPa
18%
13.2°
4
Windvlaag: 3.6 m/s
47%
05:00
15°
1011.8 hPa
14%
13.3°
4
Windvlaag: 3.8 m/s
48%
06:00
15°
1011.6 hPa
17%
13.3°
5
Windvlaag: 3.9 m/s
88%
07:00
15°
1011.6 hPa
17%
13.4°
5
Windvlaag: 3.8 m/s
89%
08:00
15°
1011.6 hPa
64%
13.4°
5
Windvlaag: 4.4 m/s
74%
09:00
16°
1011.5 hPa
61%
13.2°
6
Windvlaag: 5 m/s
74%
10:00
16°
1011.6 hPa
62%
13.6°
7
Windvlaag: 5.7 m/s
79%
11:00
16°
1011.4 hPa 0.4 mm
82%
13.7°
7
Windvlaag: 5.6 m/s
86%
12:00
16°
1010.9 hPa 0.6 mm
82%
13.8°
8
Windvlaag: 6.2 m/s
84%
13:00
16°
1010.2 hPa 1.3 mm
82%
13.9°
9
Windvlaag: 6.7 m/s
91%
14:00
16°
1009.5 hPa 1.8 mm
82%
14.5°
9
Windvlaag: 7.6 m/s
91%
15:00
16°
1009.1 hPa 2.4 mm
82%
14.7°
10
Windvlaag: 7.8 m/s
91%
16:00
17°
1008.4 hPa 2.5 mm
82%
15.0°
10
Windvlaag: 7.2 m/s
91%
17:00
17°
1008.1 hPa 1.7 mm
82%
15.3°
9
Windvlaag: 7.6 m/s
85%
18:00
17°
1008.0 hPa 1.3 mm
82%
16.0°
8
Windvlaag: 5.9 m/s
90%
19:00
17°
1008.0 hPa 1.4 mm
82%
16.1°
7
Windvlaag: 4.9 m/s
88%
20:00
17°
1007.9 hPa 1.7 mm
82%
16.3°
7
Windvlaag: 5.4 m/s
87%
21:00
17°
1008.0 hPa
81%
16.3°
7
Windvlaag: 5.4 m/s
91%
22:00
17°
1007.9 hPa 1.5 mm
75%
16.5°
7
Windvlaag: 5.6 m/s
91%
23:00
17°
1007.4 hPa 1.5 mm
82%
16.4°
7
Windvlaag: 5.3 m/s
91% warningclass
 08:09     20:12    Daglengte: 12:03 Dinsdag 24 Sep
00:00
17°
1007.0 hPa
82%
16.3°
7
Windvlaag: 5.7 m/s
90% warningclass
01:00
17°
1006.4 hPa 3.5 mm
82%
16.3°
7
Windvlaag: 5.2 m/s
90%
02:00
17°
1005.6 hPa 4.2 mm
82%
16.2°
7
Windvlaag: 6 m/s
90%
03:00
17°
1005.0 hPa 4.5 mm
82%
16.2°
7
Windvlaag: 6 m/s
91%
04:00
17°
1004.2 hPa 2.6 mm
82%
16.2°
7
Windvlaag: 5.5 m/s
90% warningclass
05:00
17°
1003.6 hPa 2.8 mm
82%
16.2°
7
Windvlaag: 5.9 m/s
87% warningclass
06:00
16°
1003.3 hPa 3.0 mm
82%
15.9°
7
Windvlaag: 5.3 m/s
78% warningclass
07:00
16°
1003.5 hPa 3.2 mm
74%
15.4°
8
Windvlaag: 5.4 m/s
52%
08:00
16°
1003.9 hPa
36%
14.9°
7
Windvlaag: 4.6 m/s
33%
09:00
16°
1004.5 hPa
65%
14.3°
7
Windvlaag: 3.3 m/s
16%
10:00
16°
1005.0 hPa
72%
14.3°
7
Windvlaag: 3.5 m/s
23%
11:00
16°
1005.4 hPa
76%
14.0°
7
Windvlaag: 3.8 m/s
14%
12:00
17°
1005.9 hPa
82%
13.5°
8
Windvlaag: 4.2 m/s
34%
13:00
17°
1006.1 hPa
82%
13.3°
8
Windvlaag: 4.4 m/s
31%
14:00
17°
1006.2 hPa 2.3 mm
82%
13.8°
8
Windvlaag: 4.6 m/s
62%
15:00
16°
1006.4 hPa 3.4 mm
79%
13.9°
8
Windvlaag: 4.8 m/s
70%
16:00
16°
1006.3 hPa 3.1 mm
80%
13.7°
8
Windvlaag: 4.1 m/s
59%
17:00
16°
1006.8 hPa 3.0 mm
79%
13.8°
8
Windvlaag: 4.1 m/s
84%
18:00
16°
1006.8 hPa
88%
13.3°
8
Windvlaag: 3.8 m/s
48%
19:00
16°
1007.0 hPa
89%
12.8°
8
Windvlaag: 3.7 m/s
53%
20:00
15°
1007.1 hPa 3.1 mm
98%
12.6°
8
Windvlaag: 3.3 m/s
62%
21:00
15°
1007.3 hPa
83%
12.6°
8
Windvlaag: 3.2 m/s
66%
22:00
15°
1007.5 hPa 2.6 mm
100%
13.0°
8
Windvlaag: 3.2 m/s
87%
23:00
15°
1007.6 hPa 2.8 mm
100%
12.9°
8
Windvlaag: 3.5 m/s
95%
 08:10     20:10    Daglengte: 12:00 Woensdag 25 Sep
00:00
15°
1007.4 hPa 3.8 mm
100%
13.0°
9
Windvlaag: 4.1 m/s
96%
01:00
15°
1007.2 hPa 4.1 mm
100%
13.0°
9
Windvlaag: 4.1 m/s
83%
02:00
15°
1006.7 hPa 4.2 mm
100%
12.9°
8
Windvlaag: 4.7 m/s
94%
03:00
16°
1006.6 hPa 4.7 mm
100%
12.8°
8
Windvlaag: 4.3 m/s
100%
04:00
16°
1006.7 hPa 4.2 mm
100%
12.6°
8
Windvlaag: 4 m/s
99%
05:00
16°
1006.8 hPa 4.4 mm
100%
12.6°
7
Windvlaag: 3.2 m/s
100%
06:00
16°
1006.8 hPa 4.5 mm
100%
13.0°
7
Windvlaag: 2.2 m/s
98%
07:00
15°
1006.9 hPa 4.4 mm
100%
13.6°
7
Windvlaag: 2 m/s
87%
08:00
15°
1007.2 hPa 3.0 mm
100%
13.9°
7
Windvlaag: 1.9 m/s
95%
09:00
15°
1007.6 hPa 3.7 mm
100%
14.0°
6
Windvlaag: 1.7 m/s
99%
10:00
16°
1007.8 hPa 3.1 mm
100%
14.4°
6
Windvlaag: 2.5 m/s
99%
11:00
16°
1008.2 hPa 4.6 mm
100%
14.7°
6
Windvlaag: 2.9 m/s
100%
12:00
16°
1008.6 hPa 3.5 mm
100%
14.7°
6
Windvlaag: 2.7 m/s
100%
13:00
16°
1008.8 hPa 3.3 mm
100%
14.6°
7
Windvlaag: 3.3 m/s
100%
14:00
16°
1009.1 hPa 3.1 mm
100%
14.5°
6
Windvlaag: 3.1 m/s
99%
15:00
16°
1009.2 hPa 5.2 mm
100%
14.4°
7
Windvlaag: 2 m/s
98%
16:00
16°
1009.2 hPa 7.4 mm
91%
14.9°
7
Windvlaag: 2.3 m/s
99%
17:00
16°
1009.2 hPa 7.5 mm
97%
15.0°
6
Windvlaag: 1.9 m/s
100%
18:00
16°
1009.2 hPa
32%
15.1°
6
Windvlaag: 1.9 m/s
100%
19:00
16°
1009.2 hPa 7.9 mm
95%
15.3°
6
Windvlaag: 1.9 m/s
100%
20:00
16°
1009.4 hPa 8.2 mm
100%
15.3°
6
Windvlaag: 1.9 m/s
100%
21:00
16°
1010.2 hPa 23.2 mm
100%
15.2°
6
Windvlaag: 12.6 m/s
100%
22:00
16°
1010.4 hPa 23.3 mm
100%
15.2°
6
Windvlaag: 12.7 m/s
97%
23:00
16°
1010.6 hPa 23.4 mm
100%
15.2°
6
Windvlaag: 12.3 m/s
92%
Temp/Neerslag /Baro Onweer/Dauwpunt
    Temp Baro Neerslag Dauwpunt Wind Bewolking  
 08:07     20:14    Daglengte: 12:07 Morgen
02:00
15°
1011.9 hPa 1.7 mm 12.8°
4
40%
05:00
15°
1011.8 hPa   13.3°
4
48%
08:00
15°
1011.6 hPa   13.4°
5
74%
11:00
16°
1011.4 hPa 0.4 mm 13.7°
7
86%
14:00
16°
1009.5 hPa 3.7 mm 14.5°
9
91%
17:00
17°
1008.1 hPa 6.6 mm 15.3°
9
85%
20:00
17°
1007.9 hPa 4.4 mm 16.3°
7
87%
23:00
17°
1007.4 hPa 3.0 mm 16.4°
7
91% warningclass
 08:09     20:12    Daglengte: 12:03 Dinsdag 24 Sep
02:00
17°
1005.6 hPa 7.7 mm 16.2°
7
90%
05:00
17°
1003.6 hPa 10.0 mm 16.2°
7
87% warningclass
08:00
16°
1003.9 hPa 6.2 mm 14.9°
7
33%
11:00
16°
1005.4 hPa   14.0°
7
14%
14:00
17°
1006.2 hPa 2.3 mm 13.8°
8
62%
17:00
16°
1006.8 hPa 9.6 mm 13.8°
8
84%
20:00
15°
1007.1 hPa 3.1 mm 12.6°
8
62%
23:00
15°
1007.6 hPa 5.4 mm 12.9°
8
95%
 08:10     20:10    Daglengte: 12:00 Woensdag 25 Sep
02:00
15°
1006.7 hPa 12.1 mm 12.9°
8
94%
05:00
16°
1006.8 hPa 13.3 mm 12.6°
7
100%
08:00
15°
1007.2 hPa 12.0 mm 13.9°
7
95%
11:00
16°
1008.2 hPa 11.4 mm 14.7°
6
100%
14:00
16°
1009.1 hPa 9.9 mm 14.5°
6
99%
17:00
16°
1009.2 hPa 20.1 mm 15.0°
6
100%
20:00
16°
1009.4 hPa 16.1 mm 15.3°
6
100%
23:00
16°
1010.6 hPa 69.9 mm 15.2°
6
92%
 08:11     20:07    Daglengte: 11:56 Donderdag 26 Sep
02:00
16°
1011.0 hPa 70.7 mm 15.3°
6
98%
05:00
16°
1010.9 hPa 15.3 mm 15.3°
7
92%
08:00
16°
1010.7 hPa 15.5 mm 15.4°
7
92%
11:00
17°
1011.2 hPa 17.5 mm 15.4°
8
91%
14:00
18°
1011.5 hPa 17.7 mm 15.2°
9
90%
17:00
16°
1011.3 hPa 17.8 mm 14.1°
6
91%
20:00
15°
1011.2 hPa 18.1 mm 13.1°
4
92%
23:00
15°
1012.2 hPa 18.6 mm 13.0°
4
61%
 08:13     20:05    Daglengte: 11:52 Vrijdag 27 Sep
02:00
15°
1013.0 hPa 19.0 mm 12.8°
5
30%
05:00
14°
1013.3 hPa 19.7 mm 12.7°
5
35%
08:00
14°
1013.5 hPa 20.2 mm 12.6°
5
39%
11:00
15°
1014.4 hPa 20.9 mm 12.3°
6
44%
14:00
16°
1015.4 hPa 21.4 mm 11.9°
7
49%
17:00
16°
1015.8 hPa 21.8 mm 12.1°
7
44%
20:00
15°
1016.2 hPa 22.1 mm 12.3°
6
39%
23:00
15°
1016.8 hPa 22.4 mm 12.6°
6
64%
 08:14     20:03    Daglengte: 11:49 Zaterdag 28 Sep
02:00
15°
1017.2 hPa 22.7 mm 12.8°
6
89%
05:00
15°
1017.0 hPa 23.2 mm 13.1°
5
90%
08:00
15°
1016.8 hPa 23.7 mm 13.5°
5
91%
11:00
16°
1016.9 hPa 24.6 mm 13.6°
6
91%
14:00
17°
1016.9 hPa 25.2 mm 13.6°
7
92%
17:00
16°
1015.7 hPa 25.7 mm 14.0°
7
92%
20:00
15°
1014.5 hPa 25.9 mm 14.3°
7
92%
23:00
16°
1013.2 hPa 26.6 mm 14.8°
7
92%
 08:16     20:01    Daglengte: 11:45 Zondag 29 Sep
02:00
16°
1011.6 hPa 32.4 mm 15.3°
8
92%
05:00
16°
1010.9 hPa 44.9 mm 15.5°
8
92%
08:00
16°
1010.5 hPa 45.8 mm 15.5°
8
92%
11:00
17°
1011.6 hPa 45.8 mm 15.2°
8
89%
14:00
17°
1012.7 hPa 46.1 mm 15.0°
7
85%
17:00
16°
1013.4 hPa 46.2 mm 14.2°
6
85%
20:00
16°
1014.0 hPa 46.4 mm 13.6°
5
84%
23:00
15°
1015.0 hPa   13.6°
6
87%
 08:17     19:59    Daglengte: 11:42 Maandag 30 Sep
02:00
15°
1015.8 hPa 93.1 mm 13.6°
6
90%
08:00
14°
1019.0 hPa 93.2 mm 12.7°
3
75%
14:00
17°
1022.5 hPa 93.4 mm 11.3°
3
33%
20:00
14°
1023.0 hPa 93.4 mm 11.7°
3
20%
 08:19     19:57    Daglengte: 11:38 Dinsdag 01 Okt
02:00
12°
1024.5 hPa 94.5 mm 10.9°
3
86%
08:00
11°
1024.1 hPa 101.2 mm 10.6°
3
13%
14:00
17°
1025.0 hPa 102.0 mm 10.0°
4
36%
20:00
14°
1022.9 hPa 105.1 mm 11.5°
2
46%
 08:20     19:55    Daglengte: 11:35 Woensdag 02 Okt
02:00
13°
1022.0 hPa 120.7 mm 9.8°
4
90%
08:00
11°
1018.8 hPa 130.3 mm 8.0°
4
71%
14:00
16°
1016.6 hPa 130.7 mm 8.0°
5
0%
20:00
14°
1018.4 hPa 0.5 mm 11.4°
3
56%
 08:21     19:53    Daglengte: 11:32 Donderdag 03 Okt
02:00
14°
1018.5 hPa 0.5 mm 11.4°
3
58%
08:00
14°
1016.9 hPa 0.6 mm 11.2°
4
67%
14:00
15°
1017.6 hPa 1.0 mm 11.4°
5
70%
20:00
15°
1016.3 hPa 1.2 mm 11.6°
4
63%
 08:23     19:51    Daglengte: 11:28 Vrijdag 04 Okt
02:00
14°
1016.8 hPa 0.6 mm 11.5°
3
60%
08:00
14°
1016.5 hPa 0.8 mm 11.1°
3
59%
14:00
15°
1017.7 hPa 0.5 mm 11.6°
4
58%
20:00
15°
1016.7 hPa 0.2 mm 12.1°
2
52%
 08:24     19:49    Daglengte: 11:25 Zaterdag 05 Okt
02:00
14°
1016.7 hPa 0.7 mm 11.8°
3
35%
08:00
14°
1016.0 hPa 1.3 mm 11.7°
2
43%
14:00
16°
1017.4 hPa 0.4 mm 11.5°
2
43%
20:00
15°
1017.4 hPa 0.2 mm 11.8°
1
34%
 08:26     19:47    Daglengte: 11:21 Zondag 06 Okt
02:00
15°
1018.4 hPa 0.1 mm 11.4°
2
29%
08:00
14°
1018.2 hPa 0.1 mm 11.0°
1
30%
14:00
16°
1019.4 hPa   11.2°
1
24%
20:00
15°
1019.0 hPa   11.2°
0
21%
 08:27     19:45    Daglengte: 11:18 Maandag 07 Okt
02:00
14°
1019.9 hPa 0.1 mm 10.4°
1
17%
08:00
13°
1019.5 hPa 0.2 mm 9.7°
1
16%
14:00
15°
1020.7 hPa   10.4°
1
14%
20:00
15°
1020.3 hPa   10.8°
1
6%
  CAPE Lifted Index Hail Supercell Tornado SRH 3km CL BTM PRES CL TOP PRES Swiss DWD icon SMHI TS
 08:07     20:14    Daglengte: 12:07 Morgen
00:00 138 J/kg 0.3 K 0 % 0 % 0 % 0 m²/s² 0 0 4.17 1
01:00 120 J/kg 1.1 K 0 % 0 % 0 % 0 m²/s² 0 0 6.68 1
02:00 135 J/kg 1.4 K 0 % 0 % 0 % 0 m²/s² 0 0 6.98 2
03:00 155 J/kg 2.2 K 0 % 0 % 0 % 0 m²/s² 0 0 8.26 1
04:00 134 J/kg 2.9 K 0 % 0 % 0 % 0 m²/s² 0 0 9.35 3
05:00 148 J/kg 3.4 K 0 % 0 % 0 % 0 m²/s² 0 0 9.31 2
06:00 144 J/kg 3.6 K 0 % 0 % 0 % 0 m²/s² 0 0 9.21 3
07:00 123 J/kg 4.6 K 0 % 0 % 0 % 0 m²/s² 0 0 9.79 3
08:00 133 J/kg 5.5 K 0 % 0 % 0 % 0 m²/s² 0 0 8.86 2
09:00 101 J/kg 5.4 K 0 % 0 % 0 % 0 m²/s² 0 0 5.58 3
10:00 120 J/kg 5.1 K 0 % 0 % 0 % 0 m²/s² 0 0 5.19 3
11:00 99 J/kg 4.4 K 0 % 0 % 0 % 0 m²/s² 0 0 4.49 80
12:00 33 J/kg 5.2 K 0 % 0 % 0 % 0 m²/s² 0 0 5.29 80
13:00 24 J/kg 4.5 K 0 % 0 % 0 % 0 m²/s² 0 0 4.71 61
14:00 7 J/kg 4.4 K 0 % 0 % 0 % 0 m²/s² 0 0 4.58 61
15:00 2 J/kg 2.0 K 0 % 0 % 0 % 0 m²/s² 0 0 2.48 61
16:00 3 J/kg 1.2 K 0 % 0 % 0 % 0 m²/s² 0 0 2.46 80
17:00 1 J/kg 0.5 K 0 % 0 % 0 % 0 m²/s² 0 0 2.21 80
18:00 0 J/kg 0.5 K 0 % 0 % 0 % 0 m²/s² 0 0 3.65 80
19:00 5 J/kg 0.4 K 0 % 0 % 0 % 0 m²/s² 0 0 3.82 80
20:00 44 J/kg 0.5 K 0 % 0 % 0 % 0 m²/s² 0 0 4.1 80
21:00 56 J/kg 0.5 K 0 % 0 % 0 % 0 m²/s² 0 0 4.82 80
22:00 108 J/kg 0.3 K 0 % 0 % 0 % 0 m²/s² 0 0 3.54 80
23:00 143 J/kg -0.9 K 0 % 0 % 0 % 0 m²/s² 0 0 1.41 95
 08:09     20:12    Daglengte: 12:03 Dinsdag 24 Sep
00:00 160 J/kg -0.4 K 0 % 0 % 0 % 0 m²/s² 0 0 -0.13 95
01:00 198 J/kg -0.5 K 0 % 0 % 0 % 0 m²/s² 0 0 -0.29 63
02:00 218 J/kg -0.9 K 0 % 0 % 0 % 0 m²/s² 0 0 -0.15 63
03:00 279 J/kg -1.6 K 0 % 0 % 0 % 0 m²/s² 0 0 -1 55
04:00 512 J/kg -2.7 K 0 % 0 % 0 % 0 m²/s² 0 0 -2.31 95
05:00 543 J/kg -3.0 K 0 % 0 % 0 % 0 m²/s² 0 0 -2.73 80
06:00 601 J/kg -3.6 K 0 % 0 % 0 % 0 m²/s² 0 0 -2.31 2
07:00 544 J/kg -2.4 K 0 % 0 % 0 % 0 m²/s² 0 0 0.12 2
08:00 243 J/kg 0.5 K 0 % 0 % 0 % 0 m²/s² 0 0 4.01 3
09:00 187 J/kg 2.2 K 0 % 0 % 0 % 0 m²/s² 0 0 8.26 2
10:00 238 J/kg 2.3 K 0 % 0 % 0 % 0 m²/s² 0 0 7.85 2
11:00 235 J/kg 2.5 K 0 % 0 % 0 % 0 m²/s² 0 0 7.03 2
12:00 234 J/kg 2.8 K 0 % 0 % 0 % 0 m²/s² 0 0 5.32 2
13:00 163 J/kg 3.4 K 0 % 0 % 0 % 0 m²/s² 0 0 4.84 80
14:00 163 J/kg 3.1 K 0 % 0 % 0 % 0 m²/s² 0 0 4.06 3
15:00 136 J/kg 3.0 K 0 % 0 % 0 % 0 m²/s² 0 0 3.75 2
16:00 169 J/kg 2.9 K 0 % 0 % 0 % 0 m²/s² 0 0 3.68 3
17:00 210 J/kg 2.9 K 0 % 0 % 0 % 0 m²/s² 0 0 3.74 3
18:00 159 J/kg 3.8 K 0 % 0 % 0 % 0 m²/s² 0 0 4.82 1
19:00 134 J/kg 4.8 K 0 % 0 % 0 % 0 m²/s² 0 0 5.82 3
20:00 79 J/kg 5.2 K 0 % 0 % 0 % 0 m²/s² 0 0 6.52 3
21:00 116 J/kg 4.6 K 0 % 0 % 0 % 0 m²/s² 0 0 5.35 3
22:00 99 J/kg 4.9 K 0 % 0 % 0 % 0 m²/s² 0 0 5.32 61
23:00 45 J/kg 6.1 K 0 % 0 % 0 % 0 m²/s² 0 0 6.73 61
 08:10     20:10    Daglengte: 12:00 Woensdag 25 Sep
00:00 33 J/kg 5.8 K 0 % 0 % 0 % 0 m²/s² 0 0 6.58 80
01:00 23 J/kg 6.1 K 0 % 0 % 0 % 0 m²/s² 0 0 7.12 80
02:00 34 J/kg 6.1 K 0 % 0 % 0 % 0 m²/s² 0 0 7.27 80
03:00 46 J/kg 6.4 K 0 % 0 % 0 % 0 m²/s² 0 0 8.2 80
04:00 47 J/kg 6.6 K 0 % 0 % 0 % 0 m²/s² 0 0 8.16 61
05:00 57 J/kg 6.3 K 0 % 0 % 0 % 0 m²/s² 0 0 8.31 61
06:00 42 J/kg 6.2 K 0 % 0 % 0 % 0 m²/s² 0 0 8.27 61
07:00 78 J/kg 5.7 K 0 % 0 % 0 % 0 m²/s² 0 0 7.26 61
08:00 86 J/kg 5.5 K 0 % 0 % 0 % 0 m²/s² 0 0 5.77 61
09:00 77 J/kg 5.4 K 0 % 0 % 0 % 0 m²/s² 0 0 5.52 3
10:00 46 J/kg 4.6 K 0 % 0 % 0 % 0 m²/s² 0 0 4.72 61
11:00 112 J/kg 5.1 K 0 % 0 % 0 % 0 m²/s² 0 0 5.19 61
12:00 60 J/kg 6.3 K 0 % 0 % 0 % 0 m²/s² 0 0 6.42 80
13:00 75 J/kg 7.2 K 0 % 0 % 0 % 0 m²/s² 0 0 7.47 61
14:00 58 J/kg 7.2 K 0 % 0 % 0 % 0 m²/s² 0 0 7.47 61
15:00 81 J/kg 6.1 K 0 % 0 % 0 % 0 m²/s² 0 0 6.49 81
16:00 66 J/kg 5.7 K 0 % 0 % 0 % 0 m²/s² 0 0 6 3
17:00 33 J/kg 5.7 K 0 % 0 % 0 % 0 m²/s² 0 0 5.79 3
18:00 3 J/kg 5.1 K 0 % 0 % 0 % 0 m²/s² 0 0 5.1 3
19:00 2 J/kg 4.8 K 0 % 0 % 0 % 0 m²/s² 0 0 5.46 3
20:00 3 J/kg 4.5 K 0 % 0 % 0 % 0 m²/s² 0 0 8.34 3
21:00 4 J/kg 3.6 K 0 % 0 % 0 % 0 m²/s² 0 0 6.87
22:00 14 J/kg 4.6 K 0 % 0 % 0 % 0 m²/s² 0 0 5.47
23:00 14 J/kg 5.6 K 0 % 0 % 0 % 0 m²/s² 0 0 6.17
Temp Baro Wind Neerslag
  EWN Forecast EWN WRFDA DWD ICON FMI HIRLAM MET Norway GFS
 08:07     20:14    Daglengte: 12:07 Morgen
02:00 14.5° 1011.9 hPa 3.7 m/s 1.7 mm 14.2° 1011.0 hPa 4.0 m/s 1.0 mm 14.9° 1011.9 hPa 3.2 m/s 2.3 mm 14.6° 1011.4 hPa 4.0 m/s 0.0 mm 14.6° 1012.0 hPa 3.6 m/s 0.0 mm 13.8° 1012.1 hPa 5.1 m/s
05:00 14.9° 1011.8 hPa 4.4 m/s 0.0 mm 14.4° 1011.3 hPa 4.2 m/s 1.2 mm 14.8° 1011.9 hPa 3.1 m/s 0.0 mm 15.7° 1011.1 hPa 4.3 m/s 0.0 mm 14.8° 1012.0 hPa 4.7 m/s 0.0 mm 14.1° 1011.9 hPa 5.6 m/s
08:00 15.4° 1011.6 hPa 5.3 m/s 0.0 mm 15.1° 1011.2 hPa 4.7 m/s 1.8 mm 15.0° 1012.5 hPa 3.4 m/s 0.0 mm 16.0° 1010.8 hPa 5.7 m/s 0.0 mm 15.6° 1011.6 hPa 5.6 m/s 0.0 mm 14.8° 1011.8 hPa 6.6 m/s
11:00 16.1° 1011.4 hPa 7.3 m/s 0.4 mm 16.0° 1011.5 hPa 6.6 m/s 2.7 mm 15.9° 1011.8 hPa 6.3 m/s 0.3 mm 16.2° 1010.3 hPa 7.4 m/s 0.0 mm 16.4° 1011.5 hPa 7.6 m/s 0.0 mm 15.3° 1011.5 hPa 8.0 m/s
14:00 16.0° 1009.5 hPa 9.5 m/s 3.7 mm 15.7° 1010.7 hPa 8.2 m/s 6.2 mm 15.8° 1009.9 hPa 6.7 m/s 2.6 mm 16.2° 1008.2 hPa 10.2 m/s 0.0 mm 16.3° 1009.5 hPa 9.8 m/s 3.0 mm 15.5° 1010.5 hPa 11.0 m/s
17:00 16.7° 1008.1 hPa 9.3 m/s 6.6 mm 16.2° 1009.4 hPa 8.3 m/s 13.8 mm 16.6° 1007.9 hPa 8.0 m/s 3.3 mm 17.4° 1006.7 hPa 9.0 m/s 0.0 mm 16.8° 1008.4 hPa 10.1 m/s 7.1 mm 15.8° 1009.5 hPa 11.0 m/s
20:00 17.1° 1007.9 hPa 7.4 m/s 4.4 mm 16.9° 1008.6 hPa 6.9 m/s 18.2 mm 17.1° 1007.3 hPa 6.1 m/s 1.5 mm 17.5° 1006.9 hPa 7.6 m/s 0.0 mm 17.1° 1008.1 hPa 9.0 m/s 2.3 mm 16.6° 1008.6 hPa 9.2 m/s
23:00 17.2° 1007.4 hPa 7.2 m/s 3.0 mm 17.1° 1009.2 hPa 6.0 m/s 20.4 mm 16.9° 1006.9 hPa 6.2 m/s 1.9 mm 17.7° 1007.4 hPa 7.8 m/s 0.0 mm 17.2° 1007.1 hPa 7.7 m/s 0.5 mm 16.5° 1008.7 hPa 8.7 m/s
 08:09     20:12    Daglengte: 12:03 Dinsdag 24 Sep
02:00 16.9° 1005.6 hPa 7.0 m/s 7.7 mm 17.1° 1006.5 hPa 7.3 m/s 23.6 mm 16.8° 1004.7 hPa 4.7 m/s 15.3 mm 17.6° 1006.0 hPa 8.1 m/s 0.0 mm 16.8° 1005.4 hPa 7.3 m/s 1.0 mm 16.6° 1006.1 hPa 10.1 m/s
05:00 16.5° 1003.6 hPa 6.9 m/s 10.0 mm 17.0° 1004.4 hPa 7.1 m/s 27.7 mm 16.3° 1003.4 hPa 5.4 m/s 13.5 mm 17.5° 1003.8 hPa 8.0 m/s 0.0 mm 16.2° 1003.2 hPa 6.5 m/s 5.4 mm 16.3° 1004.2 hPa 9.2 m/s
08:00 15.9° 1003.9 hPa 6.9 m/s 6.2 mm 16.1° 1003.7 hPa 7.0 m/s 39.6 mm 16.0° 1004.3 hPa 6.0 m/s 0.1 mm 17.2° 1003.2 hPa 5.3 m/s 0.0 mm 15.6° 1003.9 hPa 7.3 m/s 3.2 mm 15.3° 1004.2 hPa 7.5 m/s
11:00 16.5° 1005.4 hPa 6.7 m/s 0.0 mm 16.5° 1005.5 hPa 8.3 m/s 41.6 mm 16.2° 1005.6 hPa 6.9 m/s 0.1 mm 17.1° 1002.4 hPa 2.7 m/s 0.0 mm 16.5° 1005.7 hPa 7.2 m/s 0.0 mm 15.9° 1006.0 hPa 9.1 m/s
14:00 16.6° 1006.2 hPa 8.4 m/s 2.3 mm 17.1° 1006.4 hPa 9.3 m/s 42.6 mm 15.8° 1007.0 hPa 8.0 m/s 0.5 mm 17.0° 1003.0 hPa 6.6 m/s 0.0 mm 16.3° 1006.5 hPa 8.7 m/s 0.3 mm 16.6° 1007.0 hPa 10.2 m/s
17:00 16.1° 1006.8 hPa 8.1 m/s 9.6 mm 15.9° 1006.6 hPa 7.9 m/s 43.2 mm 16.5° 1006.8 hPa 8.3 m/s 0.1 mm 16.0° 1006.7 hPa 8.0 m/s 0.9 mm 15.7° 1007.3 hPa 9.0 m/s
20:00 15.1° 1007.1 hPa 7.9 m/s 3.1 mm 14.8° 1006.3 hPa 8.1 m/s 44.2 mm 15.0° 1007.2 hPa 7.1 m/s 0.2 mm 15.3° 1007.1 hPa 8.6 m/s 0.0 mm 14.9° 1007.1 hPa 9.3 m/s
23:00 15.1° 1007.6 hPa 8.4 m/s 5.4 mm 14.7° 1007.6 hPa 8.7 m/s 46.6 mm 15.1° 1007.0 hPa 6.8 m/s 2.4 mm 15.4° 1007.6 hPa 9.4 m/s 0.4 mm 14.9° 1008.3 hPa 9.9 m/s
 08:10     20:10    Daglengte: 12:00 Woensdag 25 Sep
02:00 15.4° 1006.7 hPa 8.5 m/s 12.1 mm 14.6° 1006.8 hPa 9.1 m/s 48.3 mm 15.7° 1005.5 hPa 7.2 m/s 1.3 mm 15.5° 1007.3 hPa 8.7 m/s 0.0 mm 14.8° 1007.7 hPa 10.9 m/s
05:00 15.6° 1006.8 hPa 7.4 m/s 13.3 mm 14.6° 1007.2 hPa 7.8 m/s 51.1 mm 15.8° 1004.4 hPa 7.6 m/s 4.7 mm 15.7° 1007.4 hPa 7.4 m/s 0.0 mm 14.9° 1008.3 hPa 9.3 m/s
08:00 15.3° 1007.2 hPa 6.8 m/s 12.0 mm 15.0° 1008.0 hPa 7.0 m/s 52.1 mm 16.1° 1003.7 hPa 6.7 m/s 2.7 mm 15.1° 1007.8 hPa 6.4 m/s 0.0 mm 15.1° 1008.5 hPa 8.5 m/s
11:00 15.9° 1008.2 hPa 5.9 m/s 11.4 mm 16.1° 1008.7 hPa 8.8 m/s 58.1 mm 16.0° 1005.1 hPa 5.6 m/s 1.2 mm 15.7° 1009.0 hPa 5.0 m/s 1.1 mm 15.4° 1009.3 hPa 8.9 m/s
14:00 16.2° 1009.1 hPa 6.3 m/s 9.9 mm 16.2° 1009.9 hPa 7.0 m/s 62.7 mm 16.3° 1005.3 hPa 5.5 m/s 1.3 mm 16.4° 1009.8 hPa 6.2 m/s 0.8 mm 15.6° 1009.9 hPa 8.1 m/s
17:00 16.4° 1009.2 hPa 6.5 m/s 20.1 mm 16.4° 1009.8 hPa 7.4 m/s 64.9 mm 17.1° 1005.8 hPa 6.8 m/s 2.1 mm 16.2° 1009.8 hPa 6.0 m/s 0.8 mm 15.7° 1009.3 hPa 9.6 m/s
20:00 16.2° 1009.4 hPa 5.7 m/s 16.1 mm 16.2° 1009.5 hPa 8.0 m/s 68.6 mm 16.6° 1006.9 hPa 5.4 m/s 0.1 mm 16.1° 1010.1 hPa 5.4 m/s 1.1 mm 16.0° 1009.3 hPa 9.5 m/s
23:00 16.1° 1010.6 hPa 5.9 m/s 69.9 mm 16.0° 1009.7 hPa 7.5 m/s 69.9 mm 16.1° 1010.7 hPa 5.7 m/s 15.9° 1009.8 hPa 8.6 m/s
 08:11     20:07    Daglengte: 11:56 Donderdag 26 Sep
02:00 16.1° 1011.0 hPa 6.3 m/s 70.7 mm 15.9° 1009.1 hPa 8.4 m/s 70.7 mm 16.1° 1011.3 hPa 5.9 m/s 15.9° 1008.9 hPa 9.5 m/s
05:00 16.2° 1010.9 hPa 6.6 m/s 15.3 mm 16.2° 1011.1 hPa 6.3 m/s 16.2° 1008.3 hPa 10.1 m/s 15.3 mm
08:00 16.3° 1010.7 hPa 6.9 m/s 15.5 mm 16.3° 1011.0 hPa 6.5 m/s 16.1° 1007.9 hPa 10.7 m/s 15.5 mm
11:00 16.8° 1011.2 hPa 7.8 m/s 17.5 mm 17.0° 1011.4 hPa 7.7 m/s 15.7° 1009.1 hPa 9.0 m/s 17.5 mm
14:00 17.5° 1011.5 hPa 8.8 m/s 17.7 mm 17.6° 1011.7 hPa 8.9 m/s 16.4° 1009.7 hPa 7.9 m/s 17.7 mm
17:00 16.2° 1011.3 hPa 6.4 m/s 17.8 mm 16.1° 1011.5 hPa 6.2 m/s 16.4° 1009.1 hPa 8.2 m/s 17.8 mm
20:00 14.7° 1011.2 hPa 3.9 m/s 18.1 mm 14.7° 1011.4 hPa 3.5 m/s 15.2° 1009.5 hPa 7.9 m/s 18.1 mm
23:00 14.7° 1012.2 hPa 4.3 m/s 18.6 mm 14.6° 1012.3 hPa 4.0 m/s 14.7° 1010.7 hPa 7.9 m/s 18.6 mm
 08:13     20:05    Daglengte: 11:52 Vrijdag 27 Sep
02:00 14.6° 1013.0 hPa 4.7 m/s 19.0 mm 14.6° 1013.3 hPa 4.4 m/s 14.0° 1010.2 hPa 8.2 m/s 19.0 mm
05:00 14.5° 1013.3 hPa 4.9 m/s 19.7 mm 14.5° 1013.6 hPa 4.6 m/s 14.0° 1009.6 hPa 8.4 m/s 19.7 mm
08:00 14.4° 1013.5 hPa 5.0 m/s 20.2 mm 14.4° 1013.9 hPa 4.7 m/s 13.8° 1009.3 hPa 8.1 m/s 20.2 mm
11:00 15.4° 1014.4 hPa 6.1 m/s 20.9 mm 15.4° 1014.8 hPa 5.8 m/s 15.2° 1009.9 hPa 9.8 m/s 20.9 mm
14:00 16.4° 1015.4 hPa 7.2 m/s 21.4 mm 16.4° 1015.8 hPa 6.9 m/s 15.9° 1010.7 hPa 10.7 m/s 21.4 mm
17:00 15.7° 1015.8 hPa 6.7 m/s 21.8 mm 15.8° 1016.2 hPa 6.3 m/s 15.2° 1010.3 hPa 10.0 m/s 21.8 mm
20:00 15.1° 1016.2 hPa 6.1 m/s 22.1 mm 15.2° 1016.7 hPa 5.8 m/s 14.4° 1010.8 hPa 8.9 m/s 22.1 mm
23:00 14.9° 1016.8 hPa 5.8 m/s 22.4 mm 15.0° 1017.2 hPa 5.5 m/s 14.4° 1011.8 hPa 8.9 m/s 22.4 mm
 08:14     20:03    Daglengte: 11:49 Zaterdag 28 Sep
02:00 14.8° 1017.2 hPa 5.5 m/s 22.7 mm 14.8° 1017.7 hPa 5.2 m/s 14.4° 1011.3 hPa 9.4 m/s 22.7 mm
05:00 14.8° 1017.0 hPa 5.1 m/s 23.2 mm 14.9° 1017.5 hPa 4.8 m/s 14.2° 1011.0 hPa 9.5 m/s 23.2 mm
08:00 14.9° 1016.8 hPa 4.7 m/s 23.7 mm 15.0° 1017.3 hPa 4.3 m/s 14.2° 1011.4 hPa 8.7 m/s 23.7 mm
11:00 15.8° 1016.9 hPa 6.0 m/s 24.6 mm 15.9° 1017.3 hPa 5.8 m/s 14.8° 1011.9 hPa 8.6 m/s 24.6 mm
14:00 16.7° 1016.9 hPa 7.5 m/s 25.2 mm 16.8° 1017.3 hPa 7.3 m/s 15.8° 1012.9 hPa 9.3 m/s 25.2 mm
17:00 16.1° 1015.7 hPa 7.1 m/s 25.7 mm 16.2° 1016.0 hPa 7.0 m/s 15.5° 1011.9 hPa 8.6 m/s 25.7 mm
20:00 15.5° 1014.5 hPa 6.7 m/s 25.9 mm 15.6° 1014.8 hPa 6.7 m/s 13.9° 1011.7 hPa 6.4 m/s 26.0 mm
23:00 15.9° 1013.2 hPa 7.3 m/s 26.6 mm 16.1° 1013.3 hPa 7.4 m/s 13.7° 1011.4 hPa 5.2 m/s 26.6 mm
 08:16     20:01    Daglengte: 11:45 Zondag 29 Sep
02:00 16.4° 1011.6 hPa 7.9 m/s 32.4 mm 16.7° 1011.9 hPa 8.2 m/s 13.5° 1007.9 hPa 4.3 m/s 32.4 mm
05:00 16.5° 1010.9 hPa 7.8 m/s 44.9 mm 16.6° 1011.5 hPa 8.1 m/s 14.6° 1004.7 hPa 4.4 m/s 44.9 mm
08:00 16.4° 1010.5 hPa 7.9 m/s 45.8 mm 16.6° 1011.0 hPa 8.1 m/s 13.8° 1004.5 hPa 5.6 m/s 45.8 mm
11:00 16.7° 1011.6 hPa 7.6 m/s 45.8 mm 16.9° 1012.0 hPa 7.7 m/s 14.2° 1006.7 hPa 6.3 m/s 45.8 mm
14:00 17.0° 1012.7 hPa 7.3 m/s 46.1 mm 17.2° 1013.0 hPa 7.3 m/s 15.2° 1009.9 hPa 7.2 m/s 46.1 mm
17:00 16.3° 1013.4 hPa 6.5 m/s 46.2 mm 16.4° 1013.6 hPa 6.4 m/s 15.2° 1010.2 hPa 7.3 m/s 46.2 mm
20:00 15.5° 1014.0 hPa 5.5 m/s 46.4 mm 15.7° 1014.3 hPa 5.5 m/s 13.5° 1011.2 hPa 5.2 m/s 46.4 mm
23:00 15.4° 1015.0 hPa 5.7 m/s 46.5 mm 15.6° 1015.1 hPa 5.7 m/s 12.9° 1013.9 hPa 6.0 m/s 46.5 mm
 08:17     19:59    Daglengte: 11:42 Maandag 30 Sep
02:00 15.3° 1015.8 hPa 6.0 m/s 46.5 mm 15.5° 1015.9 hPa 5.9 m/s 13.0° 1014.8 hPa 6.9 m/s 46.5 mm
08:00 13.9° 1019.0 hPa 3.3 m/s 46.6 mm 14.1° 1019.1 hPa 3.1 m/s 11.8° 1017.4 hPa 4.9 m/s 46.6 mm
14:00 17.0° 1022.5 hPa 3.4 m/s 46.7 mm 17.2° 1022.7 hPa 3.4 m/s 14.8° 1019.8 hPa 3.6 m/s 46.7 mm
20:00 14.0° 1023.0 hPa 2.7 m/s 46.7 mm 14.1° 1023.5 hPa 2.6 m/s 13.4° 1017.6 hPa 3.7 m/s 46.7 mm
 08:19     19:57    Daglengte: 11:38 Dinsdag 01 Okt
02:00 11.6° 1024.5 hPa 2.8 m/s 47.7 mm 11.3° 1025.4 hPa 2.2 m/s 14.9° 1014.4 hPa 9.6 m/s 47.7 mm
08:00 11.2° 1024.1 hPa 2.8 m/s 50.9 mm 10.8° 1025.2 hPa 2.2 m/s 16.0° 1012.5 hPa 9.7 m/s 50.9 mm
14:00 16.8° 1025.0 hPa 3.6 m/s 51.0 mm 16.8° 1026.1 hPa 3.2 m/s 16.9° 1013.3 hPa 8.5 m/s 51.0 mm
20:00 14.1° 1022.9 hPa 2.1 m/s 54.0 mm 14.0° 1023.8 hPa 1.7 m/s 15.6° 1012.7 hPa 7.1 m/s 54.0 mm
 08:20     19:55    Daglengte: 11:35 Woensdag 02 Okt
02:00 12.7° 1022.0 hPa 3.7 m/s 60.8 mm 12.4° 1022.9 hPa 3.3 m/s 15.9° 1012.2 hPa 8.2 m/s 60.8 mm
08:00 11.5° 1018.8 hPa 4.2 m/s 65.3 mm 11.1° 1019.4 hPa 4.0 m/s 15.5° 1012.4 hPa 6.2 m/s 65.3 mm
14:00 16.1° 1016.6 hPa 4.6 m/s 65.3 mm 16.0° 1016.6 hPa 4.7 m/s 17.1° 1016.1 hPa 3.7 m/s 65.3 mm
20:00 14.4° 1018.4 hPa 2.6 m/s 0.5 mm
 08:21     19:53    Daglengte: 11:32 Donderdag 03 Okt
02:00 14.0° 1018.5 hPa 3.2 m/s 0.5 mm
08:00 14.1° 1016.9 hPa 4.1 m/s 0.6 mm
14:00 15.2° 1017.6 hPa 4.5 m/s 1.0 mm
20:00 14.8° 1016.3 hPa 3.6 m/s 1.2 mm
 08:23     19:51    Daglengte: 11:28 Vrijdag 04 Okt
02:00 14.4° 1016.8 hPa 2.9 m/s 0.6 mm
08:00 13.9° 1016.5 hPa 2.7 m/s 0.8 mm
14:00 15.2° 1017.7 hPa 3.6 m/s 0.5 mm
20:00 15.0° 1016.7 hPa 2.3 m/s 0.2 mm
 08:24     19:49    Daglengte: 11:25 Zaterdag 05 Okt
02:00 14.5° 1016.7 hPa 2.9 m/s 0.7 mm
08:00 14.4° 1016.0 hPa 2.0 m/s 1.3 mm
14:00 15.7° 1017.4 hPa 2.1 m/s 0.4 mm
20:00 15.4° 1017.4 hPa 1.3 m/s 0.2 mm
 08:26     19:47    Daglengte: 11:21 Zondag 06 Okt
02:00 14.6° 1018.4 hPa 1.6 m/s 0.1 mm
08:00 14.0° 1018.2 hPa 1.2 m/s 0.1 mm
14:00 15.7° 1019.4 hPa 1.3 m/s 0.0 mm
20:00 15.0° 1019.0 hPa 0.2 m/s 0.0 mm
 08:27     19:45    Daglengte: 11:18 Maandag 07 Okt
02:00 14.0° 1019.9 hPa 1.4 m/s 0.1 mm
08:00 13.4° 1019.5 hPa 1.5 m/s 0.2 mm
14:00 15.3° 1020.7 hPa 1.2 m/s 0.0 mm
20:00 14.7° 1020.3 hPa 0.5 m/s 0.0 mm
FMI Hirlam - 7.5 km EWN WRFDA - 12 km DWD ICON - 7 km GFS - 25 km Basiskaart






























































Updatetijd (Europe/Brussels) Resolutie Lengte Stap
FMI Hirlam 19:00, 01:00, 07:00, 13:00 7.5 km 49h 1h
EWN WRFDA 21:30, 03:30, 09:30, 15:30 12 km 73h 1h
DWD ICON 17:45, 23:45, 05:45, 11:45 7 km 75h 1h
GFS 20:30, 02:30, 08:30, 14:30 25 km 237h 3h
30+ mm
25-30 mm
20-25 mm
15-20 mm
10-15 mm
6-10 mm
4-6 mm
2-4 mm
1-2 mm
0.5-1 mm
0.2-0.5 mm
0.1-0.2 mm
30+ mm
25-30 mm
20-25 mm
15-20 mm
10-15 mm
6-10 mm
4-6 mm
2-4 mm
1-2 mm
0.5-1 mm
0.2-0.5 mm
0.1-0.2 mm
Sneeuwval
Natte sneeuw
Hagel
Vorst
30+ mm
25-30 mm
20-25 mm
15-20 mm
10-15 mm
6-10 mm
4-6 mm
2-4 mm
1-2 mm
0.5-1 mm
0.2-0.5 mm
0.1-0.2 mm
Sneeuwval
Natte sneeuw
Hagel
Vorst
Onweer
50 mm
40 mm
30 mm
26 mm
22 mm
18 mm
14 mm
10 mm
9 mm
8 mm
7 mm
6 mm
5 mm
4.5 mm
4 mm
3.5 mm
3 mm
2.5 mm
2 mm
1.5 mm
1 mm
0.8 mm
0.6 mm
0.4 mm
0.2 mm
0.05 mm
35°
30°
25°
20°
15°
10°
-5°
-10°
-15°
-20°
-25°
-30°
-35°
33> m/s
29 m/s
25 m/s
21 m/s
17 m/s
14 m/s
11 m/s
8 m/s
5 m/s
3 m/s
0 m/s
2600 J/kg
2400 J/kg
2200 J/kg
2000 J/kg
1800 J/kg
1600 J/kg
1400 J/kg
1200 J/kg
1000 J/kg
800 J/kg
600 J/kg
400 J/kg
200 J/kg
70 dBZ
65 dBZ
60 dBZ
55 dBZ
50 dBZ
45 dBZ
40 dBZ
35 dBZ
30 dBZ
25 dBZ
20 dBZ
15 dBZ
10 dBZ
5 dBZ
-1 K
-2 K
-3 K
-4 K
-5 K
-6 K
-7 K
-8 K
-9 K
950 m²/s²
900 m²/s²
850 m²/s²
800 m²/s²
750 m²/s²
700 m²/s²
650 m²/s²
600 m²/s²
550 m²/s²
500 m²/s²
450 m²/s²
400 m²/s²
350 m²/s²
300 m²/s²
250 m²/s²
200 m²/s²
150 m²/s²
100 m²/s²
46 m/s
44 m/s
42 m/s
40 m/s
38 m/s
36 m/s
34 m/s
32 m/s
30 m/s
28 m/s
26 m/s
24 m/s
22 m/s
20 m/s
16 m/s
12 m/s
8 m/s
4 m/s
30 m/s
28 m/s
26 m/s
24 m/s
22 m/s
20 m/s
18 m/s
16 m/s
14 m/s
12 m/s
10 m/s
8 m/s
6 m/s
4 m/s
2 m/s
3.0
2.8
2.6
2.4
2.2
2.0
1.8
1.6
1.4
1.2
1.0
0.8
0.6
0.4
0.2
15
14
13
12
11
10
9
8
7
6
5
4
3
2
1
90%
80%
70%
60%
50%
40%
30%
20%
10%
42
40
38
36
34
32
30
28
26
24
22
20
18
16
14
12
90+ cm
80-90 cm
70-80 cm
60-70 cm
50-60 cm
40-50 cm
30-40 cm
20-30 cm
10-20 cm
1-10 cm
Sneeuwval
Natte sneeuw
Regen
>120 mm
115 mm
110 mm
105 mm
100 mm
95 mm
90 mm
85 mm
80 mm
75 mm
70 mm
65 mm
60 mm
55 mm
50 mm
45 mm
45 mm
40 mm
35 mm
30 mm
25 mm
20 mm
15 mm
10 mm
5 mm
0.1 mm
960 hPa
880 hPa
800 hPa
720 hPa
640 hPa
560 hPa
584 gpdm
568 gpdm
552 gpdm
536 gpdm
520 gpdm
504 gpdm
488 gpdm
Extreem zwaar Noodweer Kans op onweer
15% 15% 5% 50% 15%

Dag




Kaart






35°
30°
25°
20°
15°
10°